Location: Brede
(50.9167°N, 0.6000°E)
Time: 20:59:39
(UTC+00:00)

Vanguard 1 Rocket - Pass Details

Date: 27 November 2020
Orbit: 655 x 4221 km, 34.3° (Epoch: 17 January)

Event Time Altitude Azimuth Distance (km) Brightness Sun altitude
Exits shadow 05:29:03 15° 254° (WSW) 6,170 11.1 -18.8°
Maximum altitude 05:43:34 38° 201° (SSW) 3,457 10.2 -16.6°
Drops below altitude 10° 05:53:39 10° 138° (SE) 3,984 11.6 -15.0°
Sets 05:56:26 0° 129° (SE) 4,604 12.3 -14.6°
